Cosmos 1005 Rocket - Orbit

View from above orbital plane
View from above orbital plane
View from above satellite
View from above satellite

Ground track
Ground track

The orbit data is extracted from the following two-line orbital elements,

1 10861U 78045B   13138.81250051  .00067661  00000-0  53759-3 0  2832
2 10861 081.1898 142.0619 0006973 021.1384 339.0161 15.70960488926569
Epoch (UTC): 18 May 2013 19:30:00
Eccentricity: 0.0006973
inclination: 81.1898°
perigee height: 351 km
apogee height: 361 km
right ascension of ascending node: 142.0619°
argument of perigee: 21.1384°
revolutions per day: 15.70960488
mean anomaly at epoch: 339.0161°
orbit number at epoch: 92656

The dashed part of the orbit path shows where the satellite is in the earth's shadow,  

Developed and maintained by Chris Peat, Heavens-Above GmbH. Please read the updated FAQ before sending e-mail. Imprint. DLR